Weather History for Toronto Pearson Int'L. Ont., Ontario

Change the Weather History Date:

Saturday, May 4, 2013

  Actual Average Record
Temperature  
Mean Temperature 60 °F -  
Max Temperature 69 °F 66 °F - ()
Min Temperature 51 °F 44 °F - ()
Degree Days  
Heating Degree Days 5    
Growing Degree Days 10 (Base 50)    
Moisture  
Dew Point 40 °F    
Average Humidity 45    
Maximum Humidity 72    
Minimum Humidity 21    
Precipitation  
Precipitation 0.00 in 0.09 in - ()
Sea Level Pressure  
Sea Level Pressure 30.22 in    
Wind  
Wind Speed 6 mph ()    
Max Wind Speed 12 mph    
Max Gust Speed 17 mph    
Visibility 15.0 miles    
Events      
T = Trace of Precipitation, MM = Missing Value Source: Averaged Metar Reports

Daily Weather History Graph

Daily Weather History Graph

Search for Another Location

Airport:

Trip Planner

Search our weather history database for the weather conditions in past years. The results will help you decide how hot, cold, wet, or windy it might be!

Date:

Astronomy

May. 04, 2013 Rise Set
Actual Time 6:06 AM EDT 8:24 PM EDT
Civil Twilight 5:34 AM EDT 8:56 PM EDT
Nautical Twilight 4:55 AM EDT 9:36 PM EDT
Astronomical Twilight 4:11 AM EDT 10:20 PM EDT
Moon 3:14 AM EDT (5/4) 3:11 PM EDT (5/4)
Length of Visible Light 15h 22m
Length of Day
14h 18m
Waning Crescent, 27% of the Moon is Illuminated
May 4
Waning Crescent
May 9
New
May 18
First Quarter
May 25
Full
May 31
Last Quarter

Hourly Weather History & Observations

Time (EDT) Temp. Dew Point Humidity Pressure Visibility Wind Dir Wind Speed Gust Speed Precip Events Conditions
12:00 AM 64.4 °F 41.0 °F 42% 30.21 in 15.0 mi East 11.5 mph 17.3 mph N/A   Partly Cloudy
1:00 AM 62.6 °F 41.0 °F 45% 30.21 in 15.0 mi East 9.2 mph - N/A   Partly Cloudy
2:00 AM 59 °F 42 °F 41% 30.21 in 15 mi ESE 5.8 mph - -  
2:00 AM 59.0 °F 41.0 °F 51% 30.21 in 15.0 mi ESE 5.8 mph - N/A   Clear
3:00 AM 57.2 °F 42.8 °F 59% 30.21 in 15.0 mi SE 4.6 mph - N/A   Clear
4:00 AM 55.4 °F 42.8 °F 63% 30.22 in 15.0 mi SSE 4.6 mph - N/A   Clear
5:00 AM 53.6 °F 42.8 °F 67% 30.22 in 15.0 mi WNW 2.3 mph - N/A   Clear
6:00 AM 51.8 °F 42.8 °F 71% 30.23 in 15.0 mi SSW 3.5 mph - N/A   Partly Cloudy
7:00 AM 55.4 °F 44.6 °F 67% 30.25 in 15.0 mi ESE 3.5 mph - N/A   Partly Cloudy
8:00 AM 56 °F 46 °F 60% 30.26 in 15 mi SSE 3.5 mph - -   Scattered Clouds
8:00 AM 55.4 °F 46.4 °F 72% 30.26 in 15.0 mi SSE 3.5 mph - N/A   Partly Cloudy
9:00 AM 59.0 °F 46.4 °F 63% 30.27 in 15.0 mi SSE 6.9 mph - N/A   Partly Cloudy
10:00 AM 60.8 °F 44.6 °F 55% 30.27 in 15.0 mi SE 8.1 mph - N/A   Partly Cloudy
11:00 AM 62.6 °F 44.6 °F 52% 30.26 in 15.0 mi SSE 6.9 mph - N/A   Partly Cloudy
12:00 PM 64.4 °F 39.2 °F 40% 30.26 in 15.0 mi SSE 9.2 mph - N/A   Partly Cloudy
1:00 PM 64.4 °F 41.0 °F 42% 30.25 in 15.0 mi SSE 4.6 mph - N/A   Partly Cloudy
2:00 PM 66 °F 38 °F 24% 30.23 in 15 mi SE 8.1 mph - -   Clear
2:00 PM 66.2 °F 37.4 °F 35% 30.23 in 15.0 mi ESE 6.9 mph - N/A   Partly Cloudy
3:00 PM 68.0 °F 35.6 °F 30% 30.22 in 15.0 mi SE 8.1 mph - N/A   Partly Cloudy
4:00 PM 68.0 °F 32.0 °F 26% 30.20 in 15.0 mi East 6.9 mph - N/A   Partly Cloudy
5:00 PM 69.8 °F 35.6 °F 28% 30.19 in 15.0 mi SSE 8.1 mph - N/A   Partly Cloudy
6:00 PM 68.0 °F 32.0 °F 26% 30.18 in 15.0 mi ESE 9.2 mph - N/A   Partly Cloudy
7:00 PM 66.2 °F 32.0 °F 28% 30.17 in 15.0 mi ESE 6.9 mph - N/A   Partly Cloudy
8:00 PM 66 °F 35 °F 21% 30.17 in 15 mi East 6.9 mph - -   Clear
8:00 PM 66.2 °F 35.6 °F 32% 30.17 in 15.0 mi East 5.8 mph - N/A   Partly Cloudy
9:00 PM 62.6 °F 37.4 °F 39% 30.17 in 15.0 mi ENE 4.6 mph - N/A   Partly Cloudy
10:00 PM 62.6 °F 39.2 °F 42% 30.18 in 15.0 mi ENE 5.8 mph - N/A   Clear
11:00 PM 60.8 °F 39.2 °F 45% 30.18 in 15.0 mi ENE 4.6 mph - N/A   Clear